Regional Weather Roundup
Issued by NWS

Home | Current Version | Previous Version | Text Only | Print | Product List | Glossary Off
Versions: 1 2 3 4 5 6 7 8 9 10 11 12 13 14 15 16 17 18 19 20 21 22 23 24 25 26 27 28 29 30 31 32 33 34 35 36 37 38 39 40 41 42 43 44 45 46 47 48 49 50

000
ASUS43 KBIS 311602
RWRND

NORTH DAKOTA REGIONAL WEATHER ROUNDUP
NATIONAL WEATHER SERVICE BISMARCK ND
1100 AM CDT TUE MAY 31 2016

NOTE: "FAIR" INDICATES FEW OR NO CLOUDS BELOW 12,000 FEET WITH NO
SIGNIFICANT WEATHER AND/OR OBSTRUCTIONS TO VISIBILITY.


NDZ001>003-009>011-017-311700-
NORTHWEST NORTH DAKOTA

CITY           SKY/WX    TMP DP  RH WIND       PRES   REMARKS
WILLISTON      LGT RAIN  53  48  83 N30G41    29.74R
MINOT          SUNNY     62  48  60 SW18      29.61F
MINOT AFB      SUNNY     59  51  73 W18       29.59F
$$

NDZ018>021-031>035-040>046-311700-
SOUTHWEST NORTH DAKOTA

CITY           SKY/WX    TMP DP  RH WIND       PRES   REMARKS
BISMARCK       CLOUDY    57  47  69 W15G24    29.73F
DICKINSON      LGT RAIN  50  47  89 W22       29.71F
GARRISON         N/A     57  50  77 W16       29.65F
HETTINGER ARPT CLOUDY    53  44  71 W29G39    29.80F
$$

NDZ004>008-012>016-024-026-027-054-311700-
NORTHEAST NORTH DAKOTA

CITY           SKY/WX    TMP DP  RH WIND       PRES   REMARKS
GRAND FORKS    CLOUDY    67  57  70 SW14      29.68S
GRND FRKS AFB  CLOUDY    64  56  76 SW12G20   29.68S
DEVILS LAKE    CLOUDY    57  53  86 SW17      29.67R
$$

NDZ022-023-025-028>030-036>039-047>053-311700-
SOUTHEAST NORTH DAKOTA

CITY           SKY/WX    TMP DP  RH WIND       PRES   REMARKS
FARGO          CLOUDY    64  54  69 SW18G26   29.75R
JAMESTOWN      MOSUNNY   60  47  61 W21G28    29.72F
$$





USA.gov is the U.S. government's official web portal to all federal, state and local government web resources and services.